Time,TemperatureF,DewpointF,PressureIn,WindDirection,WindDirectionDegrees,WindSpeedMPH,WindSpeedGustMPH,Humidity,HourlyPrecipIn,Conditions,Clouds,dailyrainin,SolarRadiationWatts/m^2,SoftwareType,DateUTC
2013-07-31 00:00:00,62.0,52.0,-100.00,SSW,202,3.0,-999.0,69,-99.99,,,-99.99,0.000000,,2013-07-31 05:00:00,
2013-07-31 00:43:00,62.0,52.0,-100.00,SSW,202,3.0,-999.0,69,-99.99,,,-99.99,0.000000,,2013-07-31 05:43:00,
2013-07-31 00:52:00,62.0,52.0,-100.00,SSW,202,3.0,-999.0,69,-99.99,,,-99.99,0.000000,,2013-07-31 05:52:00,
2013-07-31 01:00:00,62.0,54.0,-100.00,SSW,202,1.0,-999.0,73,-99.99,,,-99.99,0.000000,,2013-07-31 06:00:00,
2013-07-31 01:43:00,62.0,54.0,-100.00,SSW,202,1.0,-999.0,73,-99.99,,,-99.99,0.000000,,2013-07-31 06:43:00,
2013-07-31 01:53:00,62.0,54.0,-100.00,SSW,202,1.0,-999.0,73,-99.99,,,-99.99,0.000000,,2013-07-31 06:53:00,
2013-07-31 02:00:00,61.0,55.0,-100.00,SSW,202,1.0,-999.0,80,-99.99,,,-99.99,0.000000,,2013-07-31 07:00:00,
2013-07-31 02:43:00,61.0,55.0,-100.00,SSW,202,1.0,-999.0,80,-99.99,,,-99.99,0.000000,,2013-07-31 07:43:00,
2013-07-31 02:52:00,61.0,55.0,-100.00,SSW,202,1.0,-999.0,80,-99.99,,,-99.99,0.000000,,2013-07-31 07:52:00,
2013-07-31 03:00:00,60.0,56.0,-100.00,SSE,157,0.0,-999.0,84,-99.99,,,-99.99,0.000000,,2013-07-31 08:00:00,
2013-07-31 03:42:00,60.0,56.0,-100.00,SSE,157,0.0,-999.0,84,-99.99,,,-99.99,0.000000,,2013-07-31 08:42:00,
2013-07-31 03:53:00,60.0,56.0,-100.00,SSE,157,0.0,-999.0,84,-99.99,,,-99.99,0.000000,,2013-07-31 08:53:00,
2013-07-31 04:00:00,60.0,56.0,-100.00,South,180,1.0,-999.0,87,-99.99,,,-99.99,0.000000,,2013-07-31 09:00:00,
2013-07-31 04:44:00,60.0,56.0,-100.00,South,180,1.0,-999.0,87,-99.99,,,-99.99,0.000000,,2013-07-31 09:44:00,
2013-07-31 04:52:00,60.0,56.0,-100.00,South,180,1.0,-999.0,87,-99.99,,,-99.99,0.000000,,2013-07-31 09:52:00,
2013-07-31 05:00:00,60.0,57.0,-100.00,SSW,202,2.0,-999.0,89,-99.99,,,-99.99,0.000000,,2013-07-31 10:00:00,
2013-07-31 05:32:00,60.0,57.0,-100.00,SSW,202,2.0,-999.0,89,-99.99,,,-99.99,0.000000,,2013-07-31 10:32:00,
2013-07-31 05:44:00,60.0,57.0,-100.00,SSW,202,2.0,-999.0,89,-99.99,,,-99.99,0.000000,,2013-07-31 10:44:00,
2013-07-31 05:52:00,60.0,57.0,-100.00,SSW,202,2.0,-999.0,89,-99.99,,,-99.99,0.000000,,2013-07-31 10:52:00,
2013-07-31 06:00:00,60.0,57.0,-100.00,SSW,202,1.0,-999.0,90,-99.99,,,-99.99,5.800000,,2013-07-31 11:00:00,
2013-07-31 06:33:00,60.0,57.0,-100.00,SSW,202,1.0,-999.0,90,-99.99,,,-99.99,5.800000,,2013-07-31 11:33:00,
2013-07-31 06:43:00,60.0,57.0,-100.00,SSW,202,1.0,-999.0,90,-99.99,,,-99.99,5.800000,,2013-07-31 11:43:00,
2013-07-31 06:53:00,60.0,57.0,-100.00,SSW,202,1.0,-999.0,90,-99.99,,,-99.99,5.800000,,2013-07-31 11:53:00,
2013-07-31 07:00:00,61.0,58.0,-100.00,South,180,2.0,-999.0,90,-99.99,,,-99.99,55.680000,,2013-07-31 12:00:00,
2013-07-31 07:43:00,61.0,58.0,-100.00,South,180,2.0,-999.0,90,-99.99,,,-99.99,55.680000,,2013-07-31 12:43:00,
2013-07-31 07:53:00,61.0,58.0,-100.00,South,180,2.0,-999.0,90,-99.99,,,-99.99,55.680000,,2013-07-31 12:53:00,
2013-07-31 08:00:00,64.0,60.0,-100.00,SW,225,3.0,-999.0,88,-99.99,,,-99.99,131.080002,,2013-07-31 13:00:00,
2013-07-31 08:43:00,64.0,60.0,-100.00,SW,225,3.0,-999.0,88,-99.99,,,-99.99,131.080002,,2013-07-31 13:43:00,
2013-07-31 08:53:00,64.0,60.0,-100.00,SW,225,3.0,-999.0,88,-99.99,,,-99.99,131.080002,,2013-07-31 13:53:00,
2013-07-31 09:00:00,68.0,62.0,-100.00,WSW,247,5.0,-999.0,81,-99.99,,,-99.99,365.399994,,2013-07-31 14:00:00,
2013-07-31 09:43:00,68.0,62.0,-100.00,WSW,247,5.0,-999.0,81,-99.99,,,-99.99,365.399994,,2013-07-31 14:43:00,
2013-07-31 09:53:00,68.0,62.0,-100.00,WSW,247,5.0,-999.0,81,-99.99,,,-99.99,365.399994,,2013-07-31 14:53:00,
2013-07-31 10:00:00,70.0,62.0,-100.00,WSW,247,6.0,-999.0,75,-99.99,,,-99.99,495.320007,,2013-07-31 15:00:00,
2013-07-31 10:44:00,70.0,62.0,-100.00,WSW,247,6.0,-999.0,75,-99.99,,,-99.99,495.320007,,2013-07-31 15:44:00,
2013-07-31 10:53:00,70.0,62.0,-100.00,WSW,247,6.0,-999.0,75,-99.99,,,-99.99,495.320007,,2013-07-31 15:53:00,
2013-07-31 11:00:00,71.0,62.0,-100.00,WSW,247,6.0,-999.0,73,-99.99,,,-99.99,455.880005,,2013-07-31 16:00:00,
2013-07-31 11:44:00,71.0,62.0,-100.00,WSW,247,6.0,-999.0,73,-99.99,,,-99.99,455.880005,,2013-07-31 16:44:00,
2013-07-31 11:52:00,71.0,62.0,-100.00,WSW,247,6.0,-999.0,73,-99.99,,,-99.99,455.880005,,2013-07-31 16:52:00,
2013-07-31 12:00:00,72.0,64.0,-100.00,South,180,5.0,-999.0,74,-99.99,,,-99.99,580.000000,,2013-07-31 17:00:00,
2013-07-31 12:43:00,72.0,64.0,-100.00,South,180,5.0,-999.0,74,-99.99,,,-99.99,580.000000,,2013-07-31 17:43:00,
2013-07-31 12:53:00,72.0,64.0,-100.00,South,180,5.0,-999.0,74,-99.99,,,-99.99,580.000000,,2013-07-31 17:53:00,
2013-07-31 13:00:00,71.0,63.0,-100.00,South,180,5.0,-999.0,76,-99.99,,,-99.99,372.359985,,2013-07-31 18:00:00,
2013-07-31 13:43:00,71.0,63.0,-100.00,South,180,5.0,-999.0,76,-99.99,,,-99.99,372.359985,,2013-07-31 18:43:00,
2013-07-31 13:52:00,71.0,63.0,-100.00,South,180,5.0,-999.0,76,-99.99,,,-99.99,372.359985,,2013-07-31 18:52:00,
2013-07-31 14:00:00,70.0,63.0,-100.00,South,180,6.0,-999.0,77,-99.99,,,-99.99,508.079987,,2013-07-31 19:00:00,
2013-07-31 14:33:00,70.0,63.0,-100.00,South,180,6.0,-999.0,77,-99.99,,,-99.99,508.079987,,2013-07-31 19:33:00,
2013-07-31 14:43:00,70.0,63.0,-100.00,South,180,6.0,-999.0,77,-99.99,,,-99.99,508.079987,,2013-07-31 19:43:00,
2013-07-31 14:53:00,70.0,63.0,-100.00,South,180,6.0,-999.0,77,-99.99,,,-99.99,508.079987,,2013-07-31 19:53:00,
2013-07-31 15:00:00,71.0,63.0,-100.00,South,180,7.0,-999.0,76,-99.99,,,-99.99,734.280029,,2013-07-31 20:00:00,
2013-07-31 15:43:00,71.0,63.0,-100.00,South,180,7.0,-999.0,76,-99.99,,,-99.99,734.280029,,2013-07-31 20:43:00,
2013-07-31 15:53:00,71.0,63.0,-100.00,South,180,7.0,-999.0,76,-99.99,,,-99.99,734.280029,,2013-07-31 20:53:00,
2013-07-31 16:00:00,71.0,63.0,-100.00,South,180,6.0,-999.0,75,-99.99,,,-99.99,395.559998,,2013-07-31 21:00:00,
2013-07-31 16:43:00,71.0,63.0,-100.00,South,180,6.0,-999.0,75,-99.99,,,-99.99,395.559998,,2013-07-31 21:43:00,
2013-07-31 16:53:00,71.0,63.0,-100.00,South,180,6.0,-999.0,75,-99.99,,,-99.99,395.559998,,2013-07-31 21:53:00,
2013-07-31 17:00:00,68.0,62.0,-100.00,South,180,5.0,-999.0,82,-99.99,,,-99.99,64.959999,,2013-07-31 22:00:00,
2013-07-31 17:43:00,68.0,62.0,-100.00,South,180,5.0,-999.0,82,-99.99,,,-99.99,64.959999,,2013-07-31 22:43:00,
2013-07-31 17:53:00,68.0,62.0,-100.00,South,180,5.0,-999.0,82,-99.99,,,-99.99,64.959999,,2013-07-31 22:53:00,
2013-07-31 18:00:00,68.0,60.0,-100.00,WSW,247,3.0,-999.0,74,-99.99,,,-99.99,82.360001,,2013-07-31 23:00:00,
2013-07-31 18:32:00,68.0,60.0,-100.00,WSW,247,3.0,-999.0,74,-99.99,,,-99.99,82.360001,,2013-07-31 23:32:00,
2013-07-31 18:42:00,68.0,60.0,-100.00,WSW,247,3.0,-999.0,74,-99.99,,,-99.99,82.360001,,2013-07-31 23:42:00,
2013-07-31 18:52:00,68.0,60.0,-100.00,WSW,247,3.0,-999.0,74,-99.99,,,-99.99,82.360001,,2013-07-31 23:52:00,
2013-07-31 19:00:00,70.0,59.0,-100.00,WSW,247,6.0,-999.0,67,-99.99,,,-99.99,178.639999,,2013-08-01 00:00:00,
2013-07-31 19:32:00,70.0,59.0,-100.00,WSW,247,6.0,-999.0,67,-99.99,,,-99.99,178.639999,,2013-08-01 00:32:00,
2013-07-31 19:43:00,70.0,59.0,-100.00,WSW,247,6.0,-999.0,67,-99.99,,,-99.99,178.639999,,2013-08-01 00:43:00,
2013-07-31 19:52:00,70.0,59.0,-100.00,WSW,247,6.0,-999.0,67,-99.99,,,-99.99,178.639999,,2013-08-01 00:52:00,
2013-07-31 20:00:00,70.0,60.0,-100.00,West,270,7.0,-999.0,71,-99.99,,,-99.99,87.000000,,2013-08-01 01:00:00,
2013-07-31 20:33:00,70.0,60.0,-100.00,West,270,7.0,-999.0,71,-99.99,,,-99.99,87.000000,,2013-08-01 01:33:00,
2013-07-31 20:43:00,70.0,60.0,-100.00,West,270,7.0,-999.0,71,-99.99,,,-99.99,87.000000,,2013-08-01 01:43:00,
2013-07-31 20:53:00,70.0,60.0,-100.00,West,270,7.0,-999.0,71,-99.99,,,-99.99,87.000000,,2013-08-01 01:53:00,
2013-07-31 21:00:00,67.0,61.0,-100.00,West,270,5.0,-999.0,79,-99.99,,,-99.99,2.320000,,2013-08-01 02:00:00,
2013-07-31 21:32:00,67.0,61.0,-100.00,West,270,5.0,-999.0,79,-99.99,,,-99.99,2.320000,,2013-08-01 02:32:00,
2013-07-31 21:43:00,67.0,61.0,-100.00,West,270,5.0,-999.0,79,-99.99,,,-99.99,2.320000,,2013-08-01 02:43:00,
2013-07-31 21:53:00,67.0,61.0,-100.00,West,270,5.0,-999.0,79,-99.99,,,-99.99,2.320000,,2013-08-01 02:53:00,
2013-07-31 22:00:00,67.0,58.0,-100.00,NW,315,5.0,-999.0,73,-99.99,,,-99.99,0.000000,,2013-08-01 03:00:00,
2013-07-31 22:43:00,67.0,58.0,-100.00,NW,315,5.0,-999.0,73,-99.99,,,-99.99,0.000000,,2013-08-01 03:43:00,
2013-07-31 22:53:00,67.0,58.0,-100.00,NW,315,5.0,-999.0,73,-99.99,,,-99.99,0.000000,,2013-08-01 03:53:00,
2013-07-31 23:00:00,64.0,55.0,-100.00,NW,315,3.0,-999.0,74,-99.99,,,-99.99,0.000000,,2013-08-01 04:00:00,
2013-07-31 23:43:00,64.0,55.0,-100.00,NW,315,3.0,-999.0,74,-99.99,,,-99.99,0.000000,,2013-08-01 04:43:00,
2013-07-31 23:53:00,64.0,55.0,-100.00,NW,315,3.0,-999.0,74,-99.99,,,-99.99,0.000000,,2013-08-01 04:53:00,